DAL456 KBOS-KATL

Flight info

Callsign DAL456
Flight time N/A
Altitude 34000
Route BLZZR6 BLZZR BAF Q448 PTW J48 MOL FLASK OZZZI2
Aircraft A321/M-SDE3FGHIRWY/LB1

Departure

Time 2026-05-06 22:41
Airport Boston Logan International Airport (KBOS)

Arrival

Time N/A
Airport Hartsfield Jackson Atlanta International Airport (KATL)
Time Latitude Longitude Altitude Speed Heading
2026-05-06 21:59 42.36187 -71.02439 26 ft 0 kts 280°
2026-05-06 22:27 42.36187 -71.02435 25 ft 3 kts 279°
2026-05-06 22:27 42.36184 -71.02404 25 ft 3 kts 271°
2026-05-06 22:27 42.36185 -71.02373 25 ft 3 kts 251°
2026-05-06 22:28 42.36196 -71.02350 27 ft 3 kts 197°
2026-05-06 22:28 42.36201 -71.02348 25 ft 0 kts 184°
2026-05-06 22:31 42.36200 -71.02348 25 ft 1 kts 184°
2026-05-06 22:31 42.36167 -71.02351 27 ft 9 kts 184°
2026-05-06 22:31 42.36105 -71.02334 29 ft 9 kts 156°
2026-05-06 22:32 42.36054 -71.02297 27 ft 9 kts 142°
2026-05-06 22:32 42.36017 -71.02223 29 ft 10 kts 120°
2026-05-06 22:32 42.35979 -71.02134 25 ft 12 kts 120°
2026-05-06 22:32 42.35934 -71.02032 28 ft 13 kts 121°
2026-05-06 22:33 42.35884 -71.01920 27 ft 15 kts 120°
2026-05-06 22:33 42.35845 -71.01787 30 ft 16 kts 103°
2026-05-06 22:33 42.35826 -71.01656 28 ft 10 kts 101°
2026-05-06 22:33 42.35843 -71.01573 26 ft 10 kts 26°
2026-05-06 22:34 42.35913 -71.01538 27 ft 11 kts 20°
2026-05-06 22:34 42.36004 -71.01494 29 ft 16 kts 20°
2026-05-06 22:34 42.36117 -71.01440 26 ft 17 kts 19°
2026-05-06 22:34 42.36218 -71.01391 29 ft 15 kts 19°
2026-05-06 22:35 42.36324 -71.01341 29 ft 17 kts 19°
2026-05-06 22:35 42.36438 -71.01286 27 ft 18 kts 21°
2026-05-06 22:35 42.36558 -71.01225 25 ft 19 kts 19°
2026-05-06 22:35 42.36686 -71.01165 28 ft 20 kts 19°
2026-05-06 22:36 42.36786 -71.01149 25 ft 14 kts 337°
2026-05-06 22:36 42.36854 -71.01229 27 ft 10 kts 335°
2026-05-06 22:36 42.36917 -71.01187 30 ft 11 kts 40°
2026-05-06 22:36 42.36982 -71.01117 28 ft 13 kts 32°
2026-05-06 22:37 42.37062 -71.01062 28 ft 13 kts 25°
2026-05-06 22:37 42.37144 -71.01009 26 ft 13 kts 26°
2026-05-06 22:37 42.37229 -71.00952 29 ft 14 kts 26°
2026-05-06 22:37 42.37314 -71.00901 26 ft 13 kts 20°
2026-05-06 22:38 42.37405 -71.00856 27 ft 15 kts 19°
2026-05-06 22:38 42.37501 -71.00811 29 ft 14 kts 19°
2026-05-06 22:38 42.37592 -71.00768 28 ft 14 kts 19°
2026-05-06 22:38 42.37686 -71.00723 28 ft 15 kts 19°
2026-05-06 22:39 42.37787 -71.00674 29 ft 11 kts 20°
2026-05-06 22:39 42.37837 -71.00614 28 ft 12 kts 78°
2026-05-06 22:39 42.37819 -71.00501 30 ft 8 kts 104°
2026-05-06 22:39 42.37761 -71.00490 29 ft 13 kts 201°
2026-05-06 22:40 42.37647 -71.00546 25 ft 28 kts 199°
2026-05-06 22:40 42.37421 -71.00652 28 ft 74 kts 199°
2026-05-06 22:40 42.36742 -71.00979 28 ft 129 kts 199°
2026-05-06 22:40 42.35815 -71.01429 350 ft 146 kts 200°
2026-05-06 22:41 42.33839 -71.01184 1641 ft 162 kts 149°
2026-05-06 22:41 42.33010 -71.00000 2026 ft 188 kts 140°
2026-05-06 22:41 42.32148 -70.98526 2188 ft 212 kts 139°
2026-05-06 22:42 42.31345 -70.96769 2652 ft 234 kts 115°
2026-05-06 22:42 42.31243 -70.94433 2994 ft 271 kts 86°
2026-05-06 22:42 42.31610 -70.91810 3346 ft 292 kts 83°
2026-05-06 22:42 42.32023 -70.89080 4078 ft 298 kts 83°
2026-05-06 22:43 42.32442 -70.86309 4754 ft 305 kts 84°
2026-05-06 22:43 42.32817 -70.83460 5394 ft 308 kts 92°
2026-05-06 22:43 42.32733 -70.80602 6059 ft 303 kts 110°
2026-05-06 22:43 42.32169 -70.77900 6760 ft 297 kts 122°
2026-05-06 22:44 42.31598 -70.76242 7213 ft 290 kts 131°
2026-05-06 22:44 42.29893 -70.73574 8089 ft 275 kts 155°
2026-05-06 22:44 42.28249 -70.72379 8767 ft 265 kts 172°
2026-05-06 22:44 42.26486 -70.71906 9436 ft 254 kts 187°
2026-05-06 22:45 42.24731 -70.72098 10091 ft 252 kts 198°
2026-05-06 22:45 42.22963 -70.72516 10547 ft 264 kts 198°
2026-05-06 22:45 42.21201 -70.73135 11084 ft 263 kts 210°
2026-05-06 22:45 42.19690 -70.74468 11703 ft 256 kts 227°
2026-05-06 22:46 42.18598 -70.76372 11938 ft 270 kts 243°
2026-05-06 22:46 42.18007 -70.78892 12079 ft 293 kts 256°
2026-05-06 22:46 42.17636 -70.81696 12200 ft 312 kts 256°
2026-05-06 22:46 42.17238 -70.84644 12525 ft 324 kts 257°
2026-05-06 22:47 42.16833 -70.87657 13089 ft 328 kts 257°
2026-05-06 22:47 42.16424 -70.90709 13678 ft 332 kts 257°
2026-05-06 22:47 42.16073 -70.93801 14171 ft 337 kts 263°
2026-05-06 22:47 42.16171 -70.97000 14645 ft 345 kts 271°
2026-05-06 22:48 42.16409 -71.00241 15129 ft 350 kts 271°
2026-05-06 22:48 42.16654 -71.03517 15622 ft 352 kts 271°
2026-05-06 22:48 42.16902 -71.06826 16075 ft 355 kts 271°
2026-05-06 22:48 42.17149 -71.10152 16547 ft 359 kts 271°
2026-05-06 22:49 42.17395 -71.13519 17010 ft 362 kts 271°
2026-05-06 22:49 42.17639 -71.16914 17461 ft 366 kts 271°
2026-05-06 22:49 42.17882 -71.20340 17923 ft 369 kts 271°
2026-05-06 22:49 42.18131 -71.23804 18330 ft 372 kts 271°
2026-05-06 22:50 42.18378 -71.27293 18724 ft 375 kts 271°
2026-05-06 22:50 42.18624 -71.30801 19139 ft 377 kts 271°
2026-05-06 22:50 42.18873 -71.34329 19543 ft 379 kts 271°
2026-05-06 22:50 42.19122 -71.37834 19942 ft 381 kts 271°
2026-05-06 22:51 42.19373 -71.41403 20348 ft 383 kts 271°
2026-05-06 22:51 42.19623 -71.44985 20756 ft 385 kts 271°
2026-05-06 22:51 42.19873 -71.48599 21153 ft 387 kts 271°
2026-05-06 22:51 42.20121 -71.52219 21547 ft 389 kts 271°
2026-05-06 22:52 42.20372 -71.55872 21941 ft 391 kts 271°
2026-05-06 22:52 42.20621 -71.59532 22363 ft 393 kts 272°
2026-05-06 22:52 42.20870 -71.63215 22754 ft 395 kts 272°
2026-05-06 22:52 42.21119 -71.66912 23123 ft 397 kts 272°
2026-05-06 22:53 42.21370 -71.70632 23468 ft 399 kts 272°
2026-05-06 22:53 42.21620 -71.74367 23804 ft 400 kts 271°
2026-05-06 22:53 42.21633 -71.78109 24148 ft 398 kts 264°
2026-05-06 22:53 42.21430 -71.81832 24507 ft 398 kts 264°
2026-05-06 22:54 42.21222 -71.85560 24874 ft 398 kts 264°
2026-05-06 22:54 42.21015 -71.89284 25251 ft 398 kts 264°
2026-05-06 22:54 42.20810 -71.93008 25657 ft 398 kts 264°
2026-05-06 22:54 42.20603 -71.96728 26062 ft 397 kts 264°
2026-05-06 22:55 42.20394 -72.00439 26455 ft 397 kts 264°
2026-05-06 22:55 42.20187 -72.04159 26781 ft 397 kts 264°
2026-05-06 22:55 42.19979 -72.07864 27134 ft 396 kts 264°
2026-05-06 22:55 42.19771 -72.11568 27470 ft 396 kts 264°
2026-05-06 22:56 42.19562 -72.15263 27909 ft 393 kts 264°
2026-05-06 22:56 42.19350 -72.18916 28378 ft 389 kts 264°
2026-05-06 22:56 42.19137 -72.22535 28860 ft 385 kts 264°
2026-05-06 22:56 42.18928 -72.26111 29360 ft 381 kts 264°
2026-05-06 22:57 42.18722 -72.29659 29784 ft 378 kts 264°
2026-05-06 22:57 42.18516 -72.33179 30115 ft 376 kts 264°
2026-05-06 22:57 42.18312 -72.36688 30424 ft 374 kts 264°
2026-05-06 22:57 42.18106 -72.40183 30722 ft 373 kts 264°
2026-05-06 22:58 42.17900 -72.43662 31032 ft 372 kts 264°
2026-05-06 22:58 42.17691 -72.47130 31358 ft 371 kts 264°
2026-05-06 22:58 42.17481 -72.50590 31698 ft 369 kts 264°
2026-05-06 22:58 42.17272 -72.54031 32027 ft 367 kts 264°
2026-05-06 22:59 42.17062 -72.57458 32346 ft 366 kts 264°
2026-05-06 22:59 42.16853 -72.60828 32695 ft 365 kts 264°
2026-05-06 22:59 42.16646 -72.64215 33100 ft 361 kts 265°
2026-05-06 22:59 42.16427 -72.67576 33466 ft 358 kts 262°
2026-05-06 23:00 42.15855 -72.70836 33731 ft 359 kts 253°
2026-05-06 23:00 42.13295 -72.76632 33796 ft 367 kts 238°
2026-05-06 23:01 42.10089 -72.82104 33797 ft 374 kts 238°
2026-05-06 23:01 42.06849 -72.87622 33796 ft 375 kts 238°
2026-05-06 23:02 42.03607 -72.93140 33795 ft 375 kts 238°
2026-05-06 23:02 42.00390 -72.98603 33825 ft 374 kts 239°
2026-05-06 23:03 41.97166 -73.04084 33821 ft 373 kts 239°
2026-05-06 23:03 41.93215 -73.08814 33787 ft 394 kts 223°
2026-05-06 23:04 41.88563 -73.12717 33800 ft 394 kts 223°
2026-05-06 23:04 41.83892 -73.16626 33808 ft 394 kts 223°
2026-05-06 23:05 41.79240 -73.20519 33810 ft 394 kts 223°
2026-05-06 23:05 41.74587 -73.24417 33782 ft 395 kts 223°
2026-05-06 23:06 41.69922 -73.28311 33788 ft 395 kts 223°
2026-05-06 23:06 41.65484 -73.32438 33820 ft 381 kts 232°
2026-05-06 23:07 41.61998 -73.37609 33827 ft 373 kts 237°
2026-05-06 23:07 41.58592 -73.42857 33824 ft 373 kts 237°
2026-05-06 23:08 41.55188 -73.48090 33821 ft 373 kts 237°
2026-05-06 23:08 41.51780 -73.53318 33812 ft 373 kts 237°
2026-05-06 23:09 41.48363 -73.58534 33813 ft 373 kts 237°
2026-05-06 23:09 41.44955 -73.63741 33834 ft 373 kts 237°
2026-05-06 23:10 41.41549 -73.68950 33824 ft 372 kts 238°
2026-05-06 23:10 41.38135 -73.74146 33825 ft 372 kts 238°
2026-05-06 23:11 41.34721 -73.79333 33822 ft 372 kts 238°
2026-05-06 23:11 41.31273 -73.84488 33821 ft 373 kts 237°
2026-05-06 23:12 41.27793 -73.89600 33823 ft 373 kts 237°
2026-05-06 23:12 41.24299 -73.94722 33802 ft 374 kts 237°
2026-05-06 23:13 41.20805 -73.99857 33814 ft 374 kts 237°
2026-05-06 23:13 41.17308 -74.04990 33847 ft 374 kts 237°
2026-05-06 23:14 41.13823 -74.10106 33845 ft 372 kts 238°
2026-05-06 23:14 41.10529 -74.15305 33848 ft 369 kts 240°
2026-05-06 23:15 41.07327 -74.20618 33808 ft 368 kts 240°
2026-05-06 23:15 41.04109 -74.25919 33822 ft 369 kts 240°
2026-05-06 23:16 41.00852 -74.31200 33832 ft 370 kts 240°
2026-05-06 23:16 40.97587 -74.36464 33859 ft 370 kts 239°
2026-05-06 23:17 40.94315 -74.41709 33866 ft 369 kts 239°
2026-05-06 23:17 40.91059 -74.46938 33828 ft 368 kts 240°
2026-05-06 23:18 40.87801 -74.52169 33833 ft 368 kts 239°
2026-05-06 23:18 40.84541 -74.57387 33847 ft 368 kts 239°
2026-05-06 23:19 40.81829 -74.61718 33845 ft 368 kts 239°
2026-05-06 23:19 40.78572 -74.66922 33829 ft 367 kts 240°
2026-05-06 23:20 40.75312 -74.72127 33765 ft 368 kts 240°
2026-05-06 23:20 40.72041 -74.77339 33811 ft 369 kts 240°
2026-05-06 23:21 40.68763 -74.82554 33819 ft 370 kts 240°
2026-05-06 23:21 40.65472 -74.87763 33824 ft 370 kts 239°
2026-05-06 23:22 40.62180 -74.92965 33834 ft 369 kts 239°
2026-05-06 23:22 40.58894 -74.98164 33835 ft 369 kts 239°
2026-05-06 23:23 40.55620 -75.03326 33806 ft 370 kts 239°
2026-05-06 23:23 40.52337 -75.08529 33841 ft 369 kts 240°
2026-05-06 23:24 40.49042 -75.13770 33856 ft 369 kts 240°
2026-05-06 23:24 40.45766 -75.18960 33863 ft 369 kts 240°
2026-05-06 23:25 40.42510 -75.24105 33856 ft 368 kts 240°
2026-05-06 23:25 40.39237 -75.29276 33828 ft 368 kts 240°
2026-05-06 23:26 40.35950 -75.34462 33843 ft 369 kts 240°
2026-05-06 23:26 40.32660 -75.39632 33848 ft 370 kts 240°
2026-05-06 23:27 40.29363 -75.44816 33888 ft 369 kts 240°
2026-05-06 23:27 40.26075 -75.49974 33887 ft 368 kts 240°
2026-05-06 23:28 40.22791 -75.55107 33888 ft 367 kts 240°
2026-05-06 23:28 40.19949 -75.60524 33845 ft 360 kts 245°
2026-05-06 23:29 40.17207 -75.66012 33855 ft 361 kts 245°
2026-05-06 23:29 40.14453 -75.71492 33858 ft 361 kts 245°
2026-05-06 23:30 40.11688 -75.76980 33864 ft 362 kts 245°
2026-05-06 23:30 40.08933 -75.82429 33889 ft 360 kts 245°
2026-05-06 23:31 40.06173 -75.87878 33899 ft 359 kts 245°
2026-05-06 23:31 40.03418 -75.93315 33835 ft 358 kts 245°
2026-05-06 23:32 40.00660 -75.98754 33840 ft 360 kts 245°
2026-05-06 23:32 39.97888 -76.04200 33844 ft 360 kts 245°
2026-05-06 23:33 39.95115 -76.09639 33845 ft 360 kts 245°
2026-05-06 23:33 39.92331 -76.15083 33867 ft 361 kts 245°
2026-05-06 23:34 39.89553 -76.20514 33875 ft 359 kts 245°
2026-05-06 23:34 39.86784 -76.25920 33882 ft 358 kts 245°
2026-05-06 23:35 39.84019 -76.31324 33885 ft 358 kts 245°
2026-05-06 23:35 39.81254 -76.36698 33879 ft 357 kts 245°
2026-05-06 23:36 39.78490 -76.42065 33873 ft 357 kts 245°
2026-05-06 23:36 39.75729 -76.47426 33879 ft 357 kts 245°
2026-05-06 23:37 39.72984 -76.52751 33909 ft 356 kts 245°
2026-05-06 23:37 39.70224 -76.58096 33901 ft 355 kts 245°
2026-05-06 23:38 39.67462 -76.63420 33845 ft 355 kts 245°
2026-05-06 23:38 39.64696 -76.68742 33850 ft 356 kts 245°
2026-05-06 23:39 39.61919 -76.74073 33857 ft 356 kts 245°
2026-05-06 23:39 39.59138 -76.79409 33874 ft 357 kts 245°
2026-05-06 23:40 39.56372 -76.84704 33881 ft 357 kts 245°
2026-05-06 23:40 39.53589 -76.90031 33915 ft 356 kts 245°
2026-05-06 23:41 39.50811 -76.95339 33843 ft 355 kts 244°
2026-05-06 23:41 39.47386 -77.00122 33855 ft 374 kts 231°
2026-05-06 23:42 39.43330 -77.04377 33867 ft 375 kts 231°
2026-05-06 23:42 39.39267 -77.08633 33884 ft 375 kts 231°
2026-05-06 23:43 39.35215 -77.12892 33888 ft 375 kts 231°
2026-05-06 23:43 39.31184 -77.17119 33851 ft 375 kts 230°
2026-05-06 23:44 39.27115 -77.21380 33856 ft 376 kts 230°
2026-05-06 23:44 39.23041 -77.25643 33890 ft 376 kts 230°
2026-05-06 23:45 39.18973 -77.29893 33898 ft 376 kts 230°
2026-05-06 23:45 39.14915 -77.34125 33901 ft 375 kts 230°
2026-05-06 23:46 39.10848 -77.38352 33852 ft 376 kts 230°
2026-05-06 23:46 39.06771 -77.42582 33864 ft 377 kts 230°
2026-05-06 23:47 39.02686 -77.46827 33860 ft 377 kts 230°
2026-05-06 23:47 38.98608 -77.51066 33855 ft 377 kts 230°
2026-05-06 23:48 38.94540 -77.55279 33868 ft 379 kts 230°
2026-05-06 23:48 38.90415 -77.59526 33875 ft 379 kts 230°
2026-05-06 23:49 38.86311 -77.63757 33881 ft 378 kts 230°
2026-05-06 23:49 38.82217 -77.67975 33873 ft 377 kts 230°
2026-05-06 23:50 38.78121 -77.72190 33876 ft 377 kts 230°
2026-05-06 23:50 38.71979 -77.78493 33883 ft 377 kts 229°
2026-05-06 23:51 38.67906 -77.82665 33850 ft 377 kts 229°
2026-05-06 23:51 38.63921 -77.87005 33859 ft 369 kts 237°
2026-05-06 23:52 38.60832 -77.92134 33865 ft 363 kts 241°
2026-05-06 23:52 38.57808 -77.97315 33877 ft 363 kts 241°
2026-05-06 23:53 38.54768 -78.02489 33883 ft 364 kts 241°
2026-05-06 23:53 38.51720 -78.07658 33884 ft 363 kts 241°
2026-05-06 23:54 38.48673 -78.12826 33850 ft 365 kts 241°
2026-05-06 23:54 38.45609 -78.18011 33860 ft 366 kts 241°
2026-05-06 23:55 38.42538 -78.23196 33865 ft 366 kts 241°
2026-05-06 23:55 38.39465 -78.28382 33866 ft 366 kts 241°
2026-05-06 23:56 38.36418 -78.33529 33866 ft 366 kts 240°
2026-05-06 23:56 38.33334 -78.38713 33868 ft 367 kts 240°
2026-05-06 23:57 38.30247 -78.43898 33845 ft 367 kts 241°
2026-05-06 23:57 38.27157 -78.49088 33849 ft 368 kts 241°
2026-05-06 23:58 38.24056 -78.54282 33858 ft 369 kts 241°
2026-05-06 23:58 38.21472 -78.58596 33862 ft 369 kts 241°
2026-05-06 23:59 38.17855 -78.64631 33858 ft 369 kts 240°
2026-05-06 23:59 38.15242 -78.68987 33864 ft 369 kts 240°
2026-05-07 00:00 38.12124 -78.74174 33873 ft 368 kts 240°
2026-05-07 00:00 38.09009 -78.79342 33873 ft 369 kts 240°
2026-05-07 00:01 38.05907 -78.84493 33881 ft 369 kts 240°
2026-05-07 00:01 38.02784 -78.89671 33882 ft 370 kts 240°
2026-05-07 00:02 37.99661 -78.94855 33881 ft 370 kts 240°
2026-05-07 00:02 37.96524 -79.00031 33879 ft 370 kts 240°
2026-05-07 00:03 37.93384 -79.05198 33894 ft 369 kts 240°
2026-05-07 00:03 37.90245 -79.10353 33946 ft 370 kts 239°
2026-05-07 00:04 37.86886 -79.15332 33979 ft 374 kts 236°
2026-05-07 00:04 37.83336 -79.20155 34010 ft 375 kts 236°
2026-05-07 00:05 37.79790 -79.24975 34038 ft 373 kts 236°
2026-05-07 00:05 37.76307 -79.29786 34045 ft 373 kts 236°
2026-05-07 00:06 37.72818 -79.34649 34045 ft 373 kts 236°
2026-05-07 00:06 37.69327 -79.39496 34004 ft 373 kts 237°
2026-05-07 00:07 37.65831 -79.44332 34007 ft 373 kts 237°
2026-05-07 00:07 37.62327 -79.49155 33987 ft 372 kts 237°
2026-05-07 00:08 37.58850 -79.53947 33957 ft 372 kts 237°
2026-05-07 00:08 37.55347 -79.58772 33931 ft 373 kts 237°
2026-05-07 00:09 37.51838 -79.63593 33902 ft 373 kts 237°
2026-05-07 00:09 37.48331 -79.68402 33890 ft 373 kts 237°
2026-05-07 00:10 37.44826 -79.73217 33923 ft 372 kts 237°
2026-05-07 00:10 37.41318 -79.78019 33926 ft 372 kts 237°